04.05.2024;06:00;14
04.05.2024;05:00;14
04.05.2024;04:00;16
04.05.2024;03:00;17
04.05.2024;02:00;14
04.05.2024;01:00;12
03.05.2024;24:00;14
03.05.2024;23:00;12
03.05.2024;22:00;12
03.05.2024;21:00;13
03.05.2024;20:00;11
03.05.2024;19:00;9
03.05.2024;18:00;9
03.05.2024;17:00;7
03.05.2024;16:00;5
03.05.2024;15:00;7
03.05.2024;14:00;8
03.05.2024;13:00;7
03.05.2024;12:00;6
03.05.2024;11:00;6
03.05.2024;10:00;4
03.05.2024;09:00;5
03.05.2024;08:00;4
03.05.2024;07:00;4
03.05.2024;06:00;3
03.05.2024;05:00;4
03.05.2024;04:00;4
03.05.2024;03:00;3
03.05.2024;02:00;4
03.05.2024;01:00;4
02.05.2024;24:00;5
02.05.2024;23:00;4
02.05.2024;22:00;8
02.05.2024;21:00;27
02.05.2024;20:00;38
02.05.2024;19:00;16
02.05.2024;18:00;5
02.05.2024;17:00;7
02.05.2024;16:00;11
02.05.2024;15:00;10
02.05.2024;14:00;10
02.05.2024;13:00;11
02.05.2024;12:00;11
02.05.2024;11:00;14
02.05.2024;10:00;17
02.05.2024;09:00;21
02.05.2024;08:00;26
02.05.2024;07:00;26
02.05.2024;06:00;23
02.05.2024;05:00;23
02.05.2024;04:00;23
02.05.2024;03:00;22
02.05.2024;02:00;23
02.05.2024;01:00;25
01.05.2024;24:00;22
01.05.2024;23:00;21
01.05.2024;22:00;18
01.05.2024;21:00;13
01.05.2024;20:00;12
01.05.2024;19:00;13
01.05.2024;18:00;17
01.05.2024;17:00;18
01.05.2024;16:00;18
01.05.2024;15:00;17
01.05.2024;14:00;17
01.05.2024;13:00;18
01.05.2024;12:00;18
01.05.2024;11:00;18
01.05.2024;10:00;17
01.05.2024;09:00;21
01.05.2024;08:00;33
01.05.2024;07:00;35
01.05.2024;06:00;34
01.05.2024;05:00;36
01.05.2024;04:00;38
01.05.2024;03:00;39
01.05.2024;02:00;43
01.05.2024;01:00;41
30.04.2024;24:00;55
30.04.2024;23:00;62
30.04.2024;22:00;42
30.04.2024;21:00;41
30.04.2024;20:00;34
30.04.2024;19:00;32
30.04.2024;18:00;35
30.04.2024;17:00;30
30.04.2024;16:00;34
30.04.2024;15:00;36
30.04.2024;14:00;33
30.04.2024;13:00;31
30.04.2024;12:00;30
30.04.2024;11:00;31
30.04.2024;10:00;32
30.04.2024;09:00;38
30.04.2024;08:00;39
30.04.2024;07:00;35
30.04.2024;06:00;31
30.04.2024;05:00;22
30.04.2024;04:00;23
30.04.2024;03:00;24
30.04.2024;02:00;25
30.04.2024;01:00;25
29.04.2024;24:00;25
29.04.2024;23:00;34
29.04.2024;22:00;23
29.04.2024;21:00;24
29.04.2024;20:00;17
29.04.2024;19:00;13
29.04.2024;18:00;11
29.04.2024;17:00;11
29.04.2024;16:00;10
29.04.2024;15:00;7
29.04.2024;14:00;5
29.04.2024;13:00;4
29.04.2024;12:00;6
29.04.2024;11:00;6
29.04.2024;10:00;6
29.04.2024;09:00;13
29.04.2024;08:00;21
29.04.2024;07:00;18
29.04.2024;06:00;12
29.04.2024;05:00;9
29.04.2024;04:00;8
29.04.2024;03:00;8
29.04.2024;02:00;6
29.04.2024;01:00;7
